Flag for Morocco Weather past 2 weeks in Tangier, Morocco

Now
72 °F

Partly cloudy.


Feels Like: 69 °F
Forecast: 68 / 80 °F
Wind: No wind

Location: Tanger Aerodrome

Current Time: Sep 2, 2014 at 6:25:28 AM

Latest Report: Sep 2, 2014 at 6:00 AM


Visibility: 5 mi

Pressure: 29.89 "Hg

Humidity: 88%

Dew point: 68 °F

Location of TangierLocation

Historic Weather in Tangier — Graph

°F

Tangier temperature yesterday

Maximum temperature yesterday: 90 °F (at 11:30 AM)
Minimum temperature yesterday: 72 °F (at 11:00 PM)
Average temperature yesterday: 80 °F

Past Weeks' High & Low Weather Summary

 TemperatureHumidityPressure
High91 °F (Aug 28, 4:30 PM)94% (Aug 31, 6:00 AM)30.09 "Hg (Aug 31, 6:00 AM)
Low59 °F (Aug 21, 7:00 AM)32% (Aug 28, 4:30 PM)29.83 "Hg (Aug 18, 7:00 PM)
Average75 °F65%29.98 "Hg
* Reported Aug 18 5:00 AM — Sep 2 5:30 AM, Tangier, Weather by CustomWeather, © 2014

Note: Actual official high and low records may vary slightly from our data, if they occured in-between our weather recording intervals... More about our weather records

Advertising

Tangier weather history for previous 24 hours

 ConditionsComfort  
Time TempWeatherWind HumidityBarometerVisibility
5:30 AM
Sep 2
72 °FPartly cloudy.5 mph88%29.89 "Hg5 mi
5:00 AM72 °FPartly cloudy.5 mph88%29.92 "Hg4 mi
4:30 AM72 °FPassing clouds.No wind83%29.92 "Hg4 mi
4:00 AM72 °FFog.5 mph83%29.92 "Hg2 mi
3:30 AM72 °FPassing clouds.3 mph83%29.92 "Hg4 mi
3:00 AM73 °FPassing clouds.3 mph83%29.92 "Hg4 mi
2:30 AM73 °FPartly cloudy.2 mph83%29.95 "Hg4 mi
2:00 AM73 °FPartly cloudy.5 mph83%29.95 "Hg4 mi
1:30 AM73 °FPartly cloudy.6 mph83%29.95 "Hg4 mi
1:00 AM73 °FPartly cloudy.8 mph83%29.98 "Hg4 mi
12:30 AM72 °FPassing clouds.9 mph88%29.98 "Hg3 mi
12:00 AM72 °FPassing clouds.7 mph88%29.95 "Hg3 mi
11:30 PM
Sep 1
72 °FFog.5 mph88%29.95 "Hg2 mi
11:00 PM72 °FFog.6 mph88%29.95 "Hg2 mi
10:30 PM73 °FFog.7 mph83%29.92 "Hg2 mi
10:00 PM73 °FFog.9 mph83%29.92 "Hg2 mi
9:30 PM77 °FPassing clouds.8 mph74%29.89 "Hg4 mi
9:00 PM81 °FPassing clouds.13 mph66%29.89 "Hg4 mi
8:30 PM81 °FPassing clouds.10 mph62%29.86 "Hg5 mi
8:00 PM82 °FPassing clouds.9 mph58%29.86 "Hg5 mi
7:30 PM82 °FPassing clouds.8 mph58%29.86 "Hg5 mi
7:00 PM84 °FPassing clouds.12 mph55%29.86 "Hg5 mi
6:30 PM84 °FPassing clouds.16 mph55%29.83 "Hg5 mi
6:00 PM84 °FPassing clouds.6 mph58%29.86 "Hg5 mi
5:30 PM88 °FPassing clouds.5 mph49%29.86 "Hg5 mi
5:00 PM86 °FPassing clouds.12 mph52%29.86 "Hg5 mi
4:30 PM82 °FPassing clouds.7 mph62%29.86 "Hg5 mi
4:00 PM82 °FPassing clouds.7 mph62%29.89 "Hg5 mi
3:30 PM81 °FPassing clouds.8 mph66%29.89 "HgN/A
3:00 PM81 °FPassing clouds.9 mph66%29.89 "HgN/A
2:30 PM82 °FPassing clouds.12 mph62%29.92 "HgN/A
2:00 PM82 °FPassing clouds.12 mph62%29.92 "HgN/A
1:30 PM84 °FPassing clouds.13 mph58%29.92 "HgN/A
1:00 PM90 °FPassing clouds.13 mph46%29.89 "HgN/A
12:30 PM90 °FPassing clouds.13 mph46%29.92 "HgN/A
12:00 PM88 °FPassing clouds.15 mph49%29.92 "HgN/A
11:30 AM90 °FPassing clouds.15 mph43%29.92 "HgN/A
11:00 AM88 °FPassing clouds.15 mph49%29.92 "HgN/A
10:30 AM86 °FPassing clouds.12 mph52%29.92 "HgN/A
10:00 AM84 °FPassing clouds.12 mph55%29.92 "HgN/A
9:30 AM82 °FPassing clouds.14 mph58%29.92 "HgN/A
9:00 AM81 °FPassing clouds.13 mph62%29.92 "HgN/A
8:30 AM79 °FPassing clouds.12 mph65%29.92 "HgN/A
8:00 AM77 °FPassing clouds.8 mph69%29.92 "HgN/A
7:30 AM77 °FPassing clouds.10 mph69%29.92 "HgN/A
7:00 AM75 °FPassing clouds.9 mph74%29.89 "HgN/A
6:30 AM77 °FClear.9 mph69%29.89 "Hg5 mi
6:00 AM77 °FClear.12 mph69%29.89 "Hg5 mi
Weather by CustomWeather, © 2014

See weather overviewHow to use our weather pages